Погода в Кристианстаде

Швеция     56°01′49″N   14°09′18″E
темп.,
°C
ветер,
м/с
пор.,
м/с
влажн.,
%
обл.,
%
осадки,
мм/ч
давл.,
гПа
погр.,
м
13 апреля, вт
вт1323:00+2юз49762 0.0 1021250
02:00+2юз511805 0.0 1021418
05:00+1юз611870 0.0 1021474
08:00+3зюз611837 0.0 1022554
11:00+6з68615 0.0 1022983
14:00+8зюз5747100 0.1 10221563
17:00+8з574573 0.2 10211422
20:00+5зсз35652 0.2 102271
14 апреля, ср
ср1423:00+2сз48780 0.0 1024207
02:000сз46824 0.0 1024132
05:000сз46824 0.0 1024131
08:00+2ссз35765 0.0 1025230
11:00+6с235332 0.0 10261216
14:00+7юв234874 0.0 10261333
17:00+7юв435270 0.0 1026664
20:00+4юв467643 0.0 1028189
15 апреля, чт
чт1523:00+2с1181100 0.0 102921
02:00+2ссз3583100 0.0 1030122
05:000ссз358599 0.0 1030107
08:00+3с51067100 0.0 1031391
11:00+7ссв695096 0.0 10301070
14:00+9св684499 0.0 10301368
17:00+9св584272 0.0 10291349
20:00+6св485680 0.0 1030134
16 апреля, пт
пт1623:00+3ссв496572 0.0 1030272
02:00+2ссв5117197 0.0 1030340
05:00+1с597656 0.0 1029254
08:00+3с512655 0.0 1029442
11:00+9св58495 0.0 1029957
14:00+11всв58435 0.0 10271401
17:00+10всв47464 0.0 10271088
20:00+7св5951100 0.0 1028238
17 апреля, сб
сб1723:00+6ссв51050100 0.1 1028558
02:00+5ссв595796 0.1 1027411
05:00+5ссв596293 0.0 1027380
08:00+6ссв5106691 0.0 1027427
11:00+9св585661 0.0 1027599
14:00+11вюв465457 0.0 1027962
17:00+10в475890 0.0 1027607
20:00+8в346953 0.0 102784